TimeEST,TemperatureF,Dew PointF,Humidity,Sea Level PressureIn,VisibilityMPH,Wind Direction,Wind SpeedMPH,Gust SpeedMPH,PrecipitationIn,Events,Conditions,WindDirDegrees,DateUTC
12:53 AM,28.0,21.0,75,30.07,8.0,NW,6.9,-,N/A,,Overcast,320,2013-01-01 05:53:00
1:36 AM,28.4,21.2,74,30.04,8.0,NNW,4.6,-,N/A,,Overcast,330,2013-01-01 06:36:00
1:53 AM,28.0,21.0,75,30.07,9.0,NNW,5.8,-,N/A,,Overcast,330,2013-01-01 06:53:00
2:26 AM,28.4,19.4,69,30.04,9.0,NNW,10.4,-,N/A,,Overcast,340,2013-01-01 07:26:00
2:53 AM,28.0,19.9,72,30.08,9.0,NNW,5.8,-,N/A,,Overcast,330,2013-01-01 07:53:00
3:53 AM,27.0,19.9,75,30.09,10.0,NNW,4.6,-,N/A,,Overcast,340,2013-01-01 08:53:00
4:53 AM,27.0,19.9,75,30.09,10.0,West,3.5,-,N/A,,Overcast,280,2013-01-01 09:53:00
5:53 AM,25.0,19.0,78,30.08,10.0,West,3.5,-,N/A,,Overcast,280,2013-01-01 10:53:00
6:53 AM,25.0,19.0,78,30.11,10.0,West,3.5,-,N/A,,Overcast,260,2013-01-01 11:53:00
7:53 AM,23.0,18.0,81,30.12,9.0,Calm,Calm,-,N/A,,Overcast,0,2013-01-01 12:53:00
8:53 AM,23.0,18.0,81,30.15,7.0,Calm,Calm,-,N/A,,Overcast,0,2013-01-01 13:53:00
9:53 AM,26.1,17.1,69,30.15,9.0,NNE,9.2,-,N/A,,Overcast,20,2013-01-01 14:53:00
10:53 AM,25.0,14.0,63,30.15,10.0,NE,10.4,-,N/A,,Mostly Cloudy,40,2013-01-01 15:53:00
11:11 AM,24.8,15.8,69,30.14,10.0,NNE,6.9,-,N/A,,Scattered Clouds,20,2013-01-01 16:11:00
11:48 AM,26.6,15.8,64,30.12,10.0,NNE,4.6,-,N/A,,Mostly Cloudy,20,2013-01-01 16:48:00
11:53 AM,26.1,15.1,63,30.15,10.0,NE,3.5,-,N/A,,Mostly Cloudy,50,2013-01-01 16:53:00
12:23 PM,26.6,15.8,64,30.13,10.0,East,3.5,-,N/A,,Scattered Clouds,80,2013-01-01 17:23:00
12:35 PM,28.4,15.8,59,30.13,10.0,Calm,Calm,-,N/A,,Mostly Cloudy,0,2013-01-01 17:35:00
12:42 PM,28.4,15.8,59,30.13,10.0,Calm,Calm,-,N/A,,Scattered Clouds,0,2013-01-01 17:42:00
12:53 PM,28.0,15.1,58,30.15,10.0,Calm,Calm,-,N/A,,Mostly Cloudy,0,2013-01-01 17:53:00
1:53 PM,27.0,15.1,61,30.12,10.0,Calm,Calm,-,N/A,,Overcast,0,2013-01-01 18:53:00
2:53 PM,28.0,17.1,63,30.12,10.0,West,9.2,-,N/A,,Mostly Cloudy,270,2013-01-01 19:53:00
3:53 PM,27.0,17.1,66,30.12,10.0,West,6.9,-,N/A,,Mostly Cloudy,270,2013-01-01 20:53:00
4:53 PM,27.0,18.0,69,30.12,10.0,WSW,8.1,-,N/A,,Overcast,250,2013-01-01 21:53:00
5:53 PM,26.1,16.0,66,30.13,10.0,WNW,8.1,-,N/A,,Overcast,300,2013-01-01 22:53:00
6:53 PM,23.0,15.1,72,30.14,10.0,NW,6.9,-,N/A,,Scattered Clouds,310,2013-01-01 23:53:00
7:02 PM,24.8,15.8,69,30.10,10.0,NW,6.9,-,N/A,,Mostly Cloudy,320,2013-01-02 00:02:00
7:53 PM,24.1,16.0,71,30.17,10.0,WNW,9.2,-,N/A,,Overcast,290,2013-01-02 00:53:00
8:21 PM,21.2,12.2,68,30.13,10.0,WNW,9.2,-,N/A,,Scattered Clouds,290,2013-01-02 01:21:00
8:53 PM,17.1,10.0,74,30.17,10.0,WNW,8.1,-,N/A,,Clear,290,2013-01-02 01:53:00
9:53 PM,17.1,10.9,77,30.16,10.0,West,5.8,-,N/A,,Clear,270,2013-01-02 02:53:00
10:53 PM,16.0,10.0,77,30.15,10.0,WSW,3.5,-,N/A,,Clear,250,2013-01-02 03:53:00
11:53 PM,12.9,8.1,81,30.17,10.0,SW,4.6,-,N/A,,Partly Cloudy,230,2013-01-02 04:53:00